Location: Cerezo de Arriba
(41.2389°N, 3.5585°W)
Time: 18:46:40
(UTC+00:00)

Daily predictions for brighter satellites

Satellite Brightness Start Highest point End
(mag) Time Altitude Azimuth Time Altitude Azimuth Time Altitude Azimuth
Okean O Rocket 2.7 19:58:17 10° SE 20:01:58 28° ENE 20:05:40 10° N
Meteor PRIRODA 4.3 20:02:07 10° SE 20:04:39 26° ENE 20:07:11 10° NNE
Okean-O 4.0 20:04:06 10° ESE 20:07:33 23° ENE 20:11:01 10° NNE
ERS-1 Rocket 4.1 20:05:22 10° SE 20:09:35 28° ENE 20:13:50 10° N
Cosmos 858 Rocket 4.5 20:05:10 10° NNW 20:10:22 87° ENE 20:15:32 10° SSE
Feng Yun 1-1 Rocket 4.3 20:05:54 10° SSE 20:11:28 73° ENE 20:17:14 10° N
ISS -0.9 20:15:45 10° NNW 20:17:37 14° N 20:19:28 10° NE
Lacrosse 4 Rocket 3.9 20:15:05 10° WSW 20:18:23 25° NW 20:21:43 10° N
Gbstr 26 Del rocket 3.9 20:13:13 10° WNW 20:18:53 56° SW 20:23:22 10° SSE
Cosmos 1743 4.0 20:16:42 10° NNE 20:19:16 20° ENE 20:21:21 12° ESE
CZ-4B R/B 3.0 20:15:55 10° SSE 20:19:55 60° ENE 20:23:51 10° N
ARIANE 6 FM1 Upper Stage 2.6 20:16:28 10° SSW 20:20:22 55° ESE 20:24:19 10° NE
NOSS 3-1 (C) 3.8 20:16:56 10° SSE 20:20:37 24° ESE 20:24:43 10° ENE
Cosmos 1782 2.5 20:19:47 10° S 20:23:27 87° E 20:27:08 10° N
Cosmos 1726 Rocket 3.5 20:21:23 10° S 20:25:47 73° E 20:30:10 10° NNE
Cosmos 1833 Rocket 3.3 20:21:47 10° S 20:26:50 35° ESE 20:31:56 10° NE
MetOp-B 4.4 20:22:02 10° SSE 20:27:14 55° ENE 20:32:28 10° N
CZ-4 R/B 2.7 20:23:40 10° SSW 20:27:22 39° W 20:31:06 10° NNW
DELTA 2 R/B (1) 4.1 20:26:51 10° SW 20:31:55 38° SSE 20:37:00 10° E
Cosmos 158 Rocket 4.3 20:30:49 10° S 20:35:49 46° ESE 20:40:56 10° NNE
USA 186 3.0 20:33:52 10° SSW 20:36:21 32° W 20:38:52 10° NNW
Cosmos 1076 Rocket 3.8 20:32:29 10° N 20:36:44 51° E 20:40:10 15° SSE
Cosmos 2058 Rocket 3.3 20:36:56 10° S 20:41:16 52° E 20:45:37 10° NNE
Cosmos 1825 Rocket 3.8 20:39:19 10° NNW 20:43:35 66° W 20:47:50 10° S
DEBRIS 3.8 20:38:21 10° WNW 20:45:35 46° SW 20:47:32 19° SSE
NOSS 3-1 (A) 4.3 20:50:27 17° ESE 20:50:27 17° ESE 20:53:35 10° ENE
Helios 1A 2.8 20:46:27 10° NNE 20:50:30 84° ESE 20:54:30 10° SSW
Resurs 01 Rocket 4.3 20:49:03 10° SW 20:51:53 17° W 20:54:43 10° NW
Helios 1B rocket 3.0 20:48:28 10° S 20:52:00 47° W 20:55:34 10° NNW
Cosmos 2151 4.2 20:48:19 10° NNW 20:52:15 40° W 20:56:10 10° SSW
ATLAS CENTAUR R/B 1.1 20:48:40 10° SW 20:52:16 81° WNW 20:56:04 10° NNE
Cosmos 2360 4.4 20:47:03 10° NNW 20:52:43 60° ENE 20:56:36 20° SE
Terra 1.9 20:50:03 18° SSE 20:53:25 61° ENE 20:58:04 10° N
Cosmos 1980 Rocket 4.1 20:50:14 10° N 20:53:51 17° NE 20:57:27 10° E
SAR-Lupe-2 4.1 20:57:49 27° SE 20:59:20 43° ENE 21:02:44 10° N
USA 234 3.2 20:53:38 10° NE 21:00:13 88° SE 21:06:46 10° SW
Meteor 2-2 Rocket 4.5 20:57:32 13° SSE 21:02:35 55° E 21:08:24 10° NNE
BlueWalker 3 3.7 21:04:45 10° NNW 21:07:45 23° NNE 21:10:12 13° ENE
Cosmos 1400 Rocket 3.5 21:05:10 10° SSW 21:08:44 50° WNW 21:12:19 10° N
CZ-4B R/B 4.4 21:03:39 10° SSW 21:08:49 39° W 21:13:54 10° NNW
Cosmos 1125 Rocket 3.9 21:06:14 10° N 21:11:24 50° ENE 21:14:02 27° SE
Cosmos 1346 Rocket 2.7 21:09:40 10° N 21:13:20 59° ENE 21:14:32 37° SE
IRS-1C Rocket 4.2 21:15:27 27° SE 21:18:15 61° ENE 21:23:26 10° N
Ariane Rocket 3.5 21:16:59 28° SE 21:19:12 44° ENE 21:24:00 10° N
Cosmos 1238 Rocket 4.0 21:22:12 24° E 21:22:12 24° E 21:24:39 10° NE
Cosmos 44 3.8 21:18:52 10° NNW 21:23:17 45° NE 21:25:13 29° ESE
Cosmos 1570 Rocket 3.9 21:19:35 15° S 21:23:58 71° ESE 21:29:13 10° NNE
Lacrosse 5 rocket 1.7 21:22:21 10° NNW 21:25:43 41° NE 21:26:35 33° ENE
CZ-4C R/B 3.5 21:18:46 10° NW 21:26:08 59° WSW 21:32:15 21° S
Cosmos 1697 Rocket 2.9 21:21:05 10° NNW 21:26:42 60° ENE 21:29:17 32° SE
SL-8 Rocket 4.1 21:20:41 10° N 21:26:44 57° E 21:29:41 30° SE
Cosmos 2327 Rocket 4.4 21:21:26 10° N 21:27:36 86° E 21:31:17 25° S
ATLAS 3B R/B 4.3 21:30:06 17° E 21:30:06 17° E 21:34:02 10° ENE
Cosmos-2242 3.3 21:27:28 18° SSW 21:30:36 66° W 21:34:50 10° N
Cosmos 836 Rocket 4.4 21:27:43 25° S 21:30:41 62° ESE 21:35:49 10° NNE
Cosmos 2221 3.0 21:37:29 37° E 21:37:35 37° E 21:41:27 10° NNE
Cosmos 1536 4.5 21:34:56 10° NNE 21:37:32 19° ENE 21:37:32 19° ENE
Okean O Rocket 3.4 21:34:39 11° SSW 21:38:07 26° W 21:41:46 10° NW
SeaSat 1 3.7 21:36:40 23° E 21:38:33 30° NE 21:42:48 10° N
Cosmos 1867 3.8 21:33:53 10° NNW 21:39:17 58° NE 21:41:23 35° ESE
Okean 1 3.9 21:42:38 36° ENE 21:42:38 36° ENE 21:45:35 10° NNE
Cosmos 2082 Rocket 2.8 21:42:04 34° ESE 21:42:35 35° ESE 21:47:36 10° NE
Okean-O 4.0 21:40:55 17° SSW 21:43:41 32° W 21:47:38 10° NNW
SPOT 3 Rocket 3.4 21:43:33 39° SSE 21:45:32 85° ENE 21:50:42 10° NNW
ERS-1 Rocket 4.3 21:44:41 15° SSW 21:48:09 34° W 21:52:42 10° NNW
Cosmos 2341 Rocket 3.9 21:42:09 10° N 21:48:25 86° E 21:51:17 35° S
Cosmos 773 Rocket 3.8 21:51:32 41° S 21:53:18 71° ESE 21:58:25 10° NNE
ISS -1.8 21:52:29 10° NW 21:55:17 24° NNE 21:56:12 21° NE
Cosmos 2084 Rocket 4.0 21:52:53 10° SW 21:57:05 56° NW 22:01:17 10° NNE
Cosmos 220 Rocket 3.9 21:57:20 59° E 21:57:20 59° E 22:01:07 10° NNE
COSMOS 2406 4.2 21:59:10 29° E 21:59:10 29° E 22:03:35 10° NE
Spot 2 Rocket 4.3 21:57:45 27° SSW 22:00:04 44° W 22:04:53 10° NNW
Cosmos 1356 Rocket 3.9 22:04:09 39° SW 22:05:23 55° WNW 22:09:26 10° N
Cosmos 1733 4.4 22:05:52 10° NNW 22:08:27 27° W 22:08:27 27° W
Cosmos 1833 Rocket 4.3 22:05:39 10° WSW 22:10:43 34° WNW 22:15:49 10° N
NOSS 3-1 (C) 4.2 22:06:26 10° WSW 22:10:53 40° NW 22:16:11 10° NNE
DELTA 2 R/B (1) 3.4 22:12:25 10° WSW 22:17:56 72° S 22:19:10 53° ESE
Cosmos 1821 Rocket 3.8 22:17:26 10° N 22:23:34 86° E 22:25:07 53° SSE
Cosmos 1805 4.0 22:21:58 10° N 22:24:24 42° N 22:24:24 42° N
Meteor 1-19 Rocket 4.4 22:25:47 53° SE 22:26:39 58° E 22:32:33 10° NNE
Cosmos 2218 Rocket 4.4 22:22:11 10° NNW 22:28:24 57° W 22:30:48 36° SSW
Cosmos 1315 Rocket 3.8 22:30:06 37° W 22:30:31 39° WNW 22:34:12 10° N
Meteor 1-27 Rocket 4.1 22:30:54 44° E 22:30:58 44° E 22:36:12 10° NNE
Terra 4.3 22:29:02 10° WSW 22:31:21 13° W 22:33:40 10° WNW
Cosmos 1980 Rocket 2.0 22:32:53 10° NNW 22:38:29 79° WSW 22:39:12 67° S
NOSS 3-1 (A) 3.5 22:37:43 25° WSW 22:40:22 55° NW 22:45:51 10° NNE
Intercosmos 25 Rocket 4.1 22:41:10 68° SSE 22:41:51 82° E 22:49:32 10° N
BlueWalker 3 3.4 22:42:07 10° WNW 22:44:08 30° WNW 22:44:08 30° WNW
SL-16 R/B 3.4 22:44:46 10° N 22:49:45 30° NE 22:51:04 27° E
Cosmos 1975 4.4 22:48:11 10° N 22:50:13 26° NNE 22:50:13 26° NNE
Meteor 1-11 Rocket 3.5 22:47:30 10° N 22:53:03 85° E 22:53:25 78° SE
CZ-4C R/B 4.5 22:51:40 10° N 22:54:01 37° N 22:54:01 37° N
Cosmos 2322 Rocket 3.9 22:54:09 10° N 22:58:31 22° NE 23:00:25 19° E
ARIANE 5 R/B 3.2 23:01:14 49° NE 23:01:14 49° NE 23:04:48 10° N
Cosmos 1842 Rocket 4.1 23:02:48 55° N 23:02:48 55° N 23:06:11 10° N
Lacrosse 5 rocket 3.9 23:00:27 10° W 23:00:35 11° W 23:00:35 11° W
Nadezhda 3 Rocket 4.2 23:06:38 48° SW 23:08:06 62° W 23:14:17 10° N
Cosmos 1697 Rocket 4.5 23:06:16 10° WNW 23:10:06 19° W 23:11:00 18° WSW
SeaSat 1 3.4 23:16:18 36° W 23:16:18 36° W 23:20:21 10° NW
Cosmos 2278 4.2 23:10:39 10° NNW 23:16:06 48° ENE 23:16:39 46° E
Cosmos 381 Rocket 4.4 23:17:17 68° SSW 23:18:11 84° WNW 23:24:35 10° NNE
Cosmos 2360 Rocket 3.7 23:13:34 10° N 23:18:14 26° NE 23:19:47 23° E
ATLAS 3B R/B 2.8 23:17:16 55° SSW 23:19:12 85° ESE 23:27:01 10° NE
Cosmos 1934 Rocket 3.8 23:13:07 10° N 23:19:24 90° WNW 23:20:02 74° S
USA 229 DEB 3.5 23:20:46 58° E 23:20:46 58° E 23:26:40 10° NE
USA 229 3.6 23:20:54 57° E 23:20:54 57° E 23:26:45 10° NE
Cosmos 1339 Rocket 4.5 23:20:29 62° SW 23:21:19 70° W 23:27:23 10° N
CZ-2C R/B 4.2 23:18:04 10° N 23:21:45 55° NNW 23:21:45 55° NNW
Cosmos 2369 4.0 23:18:00 10° NNW 23:23:23 54° WSW 23:23:23 54° WSW
CENTAUR R/B 4.4 23:16:11 10° NNW 23:23:43 38° NE 23:31:24 13° ESE
Cosmos 2082 Rocket 3.5 23:23:50 22° WSW 23:26:35 34° WNW 23:31:41 10° N
ISS -0.6 23:28:58 10° WNW 23:29:07 11° WNW 23:29:07 11° WNW
Cosmos 1605 Rocket 3.9 23:28:33 10° N 23:34:52 71° E 23:35:18 68° ESE
Landsat 5 4.5 23:32:57 10° N 23:36:07 45° NNW 23:36:07 45° NNW
COSMOS 2406 4.2 23:41:09 33° W 23:42:49 40° WNW 23:48:11 10° N
Cosmos 1151 Rocket 4.1 23:56:08 41° N 23:56:08 41° N 23:58:58 10° N
USA 59 Rocket 2.3 23:56:16 14° NNW 23:56:16 14° NNW 23:57:24 10° N
